Weather reports worldwide

Advertisment
Grantley Adams, Grenada (78954): temperature & dewpoint: 01.07.2020 16:00:00 - 07.07.2020 16:00:00 (AST)Grantley Adams, Grenada (78954): wind speed: 01.07.2020 16:00:00 - 07.07.2020 16:00:00 (AST)Grantley Adams, Grenada (78954): wind direction: 01.07.2020 16:00:00 - 07.07.2020 16:00:00 (AST)Grantley Adams, Grenada (78954): reduced air pressure: 01.07.2020 16:00:00 - 07.07.2020 16:00:00 (AST)Grantley Adams, Grenada (78954): visibility: 01.07.2020 16:00:00 - 07.07.2020 16:00:00 (AST)
Date & Time tt [°C] td [°C] ff [km/h] ff [kn] dd ppp [hPa] vv [km]
07.07.2020 16:00:00 - - - - - - -
07.07.2020 15:00:00 31,0 24,0 18 10 SE - 10
07.07.2020 14:00:00 30,0 24,4 18 10 SE 1013,9 10
07.07.2020 13:00:00 30,0 24,0 18 10 SSE - 10
07.07.2020 12:00:00 30,0 24,0 18 10 SE - 10
07.07.2020 11:00:00 30,0 24,0 18 10 SE - 10
07.07.2020 10:00:00 30,0 25,0 18 10 SE - 10
07.07.2020 09:00:00 29,0 25,0 15 8 ESE - 10
07.07.2020 08:00:00 27,4 25,2 11 6 ESE 1013,6 28
07.07.2020 07:00:00 27,0 24,0 13 7 SE - 10
07.07.2020 06:00:00 26,0 24,0 15 8 SE - 10
07.07.2020 05:00:00 25,2 23,7 11 6 E 1012,6 22
07.07.2020 04:00:00 26,0 24,0 11 6 E - 10
07.07.2020 03:00:00 26,0 23,0 28 15 E - 10
07.07.2020 02:00:00 26,5 24,0 24 13 ESE 1012,7 10
07.07.2020 01:00:00 27,0 24,0 26 14 ESE - 10
07.07.2020 00:00:00 27,0 23,0 29 16 ESE - 10
06.07.2020 23:00:00 26,5 23,7 34 18 ESE 1014,3 10
06.07.2020 22:00:00 27,0 24,0 31 17 E - 10
06.07.2020 21:00:00 26,0 24,0 26 14 E - 10
06.07.2020 20:00:00 26,9 24,2 29 16 E 1012,8 18
06.07.2020 19:00:00 27,0 24,0 28 15 ESE - 10
06.07.2020 18:00:00 27,0 24,0 29 16 E - 10
06.07.2020 17:00:00 27,0 24,5 28 15 E 1011,9 10
06.07.2020 16:00:00 27,0 24,0 28 15 ESE - 10
06.07.2020 15:00:00 28,0 25,0 28 15 ESE - 10
06.07.2020 14:00:00 29,5 25,0 34 18 E 1013,1 10
06.07.2020 13:00:00 30,0 25,0 39 21 ESE - 10
06.07.2020 12:00:00 30,0 25,0 37 20 ESE - 10
06.07.2020 11:00:00 27,7 25,4 37 20 E 1014,4 10
06.07.2020 10:00:00 27,0 25,0 34 18 E - 10
06.07.2020 09:00:00 26,0 24,0 41 22 E - 10
06.07.2020 08:00:00 26,9 25,5 31 17 E 1013,7 10
06.07.2020 07:00:00 26,0 24,0 26 14 E - 10
06.07.2020 06:00:00 26,0 24,0 29 16 E - 10
06.07.2020 05:00:00 25,0 23,4 34 18 E 1012,9 10
06.07.2020 04:00:00 27,0 24,0 24 13 E - 10
06.07.2020 03:00:00 27,0 24,0 29 16 E - 10
06.07.2020 02:00:00 27,0 24,0 26 14 E - 10
06.07.2020 01:00:00 25,7 24,0 24 13 E 1012,8 10
06.07.2020 00:00:00 27,0 24,0 29 16 E - 10
05.07.2020 23:00:00 26,7 24,0 28 15 E 1014,5 10
05.07.2020 22:00:00 28,0 24,0 26 14 E - 10
05.07.2020 21:00:00 28,0 24,0 26 14 E - 10
05.07.2020 20:00:00 27,5 24,0 24 13 E 1013,2 10
05.07.2020 19:00:00 28,0 24,0 24 13 E - 10
05.07.2020 18:00:00 28,0 24,0 28 15 E - 10
05.07.2020 17:00:00 28,5 23,9 35 19 E 1012,3 10
05.07.2020 16:00:00 29,0 24,0 28 15 E - 10
05.07.2020 15:00:00 30,0 24,0 34 18 E - 10
05.07.2020 14:00:00 31,0 25,0 34 18 E - 10
05.07.2020 13:00:00 28,0 24,5 28 15 E 1012,7 10
05.07.2020 12:00:00 30,0 24,0 31 17 E - 10
05.07.2020 11:00:00 30,0 22,7 36 19 E 1014,1 16
05.07.2020 10:00:00 30,0 24,0 34 18 E - 10
05.07.2020 09:00:00 30,0 23,0 34 18 E - 10
05.07.2020 08:00:00 28,4 23,0 32 18 E 1013,7 24
05.07.2020 07:00:00 28,0 23,0 28 15 E - 10
05.07.2020 06:00:00 27,0 23,0 28 15 E - 10
05.07.2020 05:00:00 26,5 22,0 25 14 E 1012,7 26
05.07.2020 04:00:00 27,0 23,0 31 17 E - 10
05.07.2020 03:00:00 27,0 22,0 31 17 E - 10
05.07.2020 02:00:00 26,7 22,2 24 13 E 1013,0 10
05.07.2020 01:00:00 27,0 22,0 29 16 E - 10
05.07.2020 00:00:00 27,0 22,0 34 18 E - 10
04.07.2020 23:00:00 26,9 21,0 35 19 E 1014,4 10
04.07.2020 22:00:00 28,0 22,0 34 18 E - 10
04.07.2020 21:00:00 28,0 22,0 34 18 E - 10
04.07.2020 20:00:00 27,4 21,7 31 17 E 1013,2 10
04.07.2020 19:00:00 28,0 22,0 28 15 E - 10
04.07.2020 18:00:00 28,0 22,0 28 15 E - 10
04.07.2020 17:00:00 28,7 21,0 29 16 E 1011,9 10
04.07.2020 16:00:00 30,0 21,0 34 18 E - 10
04.07.2020 15:00:00 30,0 23,0 31 17 E - 10
04.07.2020 14:00:00 30,2 23,0 35 19 E 1012,8 10
04.07.2020 13:00:00 31,0 23,0 35 19 E - 10
04.07.2020 12:00:00 31,0 22,0 34 18 ESE - 10
04.07.2020 11:00:00 29,7 21,2 37 20 ESE 1013,5 10
04.07.2020 10:00:00 30,0 23,0 41 22 E - 10
04.07.2020 09:00:00 29,0 23,0 37 20 E - 10
04.07.2020 08:00:00 28,2 22,5 35 19 E 1013,5 10
04.07.2020 07:00:00 28,0 22,0 37 20 E - 10
04.07.2020 06:00:00 28,0 23,0 35 19 E - 10
04.07.2020 05:00:00 27,0 24,0 37 20 E - 10
04.07.2020 04:00:00 26,5 22,2 35 19 E 1012,7 10
04.07.2020 03:00:00 27,0 22,0 41 22 E - 10
04.07.2020 02:00:00 26,5 22,5 29 16 E 1012,4 26
04.07.2020 01:00:00 27,0 23,0 29 16 E - 10
04.07.2020 00:00:00 27,0 24,0 29 16 E - 10
03.07.2020 23:00:00 26,7 22,9 24 13 E 1014,4 10
03.07.2020 22:00:00 28,0 23,0 29 16 E - 10
03.07.2020 21:00:00 28,0 24,0 26 14 E - 10
03.07.2020 20:00:00 28,0 23,0 29 16 E - 10
03.07.2020 19:00:00 27,4 23,0 29 16 E 1013,1 10
03.07.2020 18:00:00 28,0 23,0 29 16 E - 10
03.07.2020 17:00:00 28,4 22,0 31 17 E 1011,9 10
03.07.2020 16:00:00 30,0 23,0 31 17 E - 10
03.07.2020 15:00:00 30,0 24,0 31 17 E - 10
03.07.2020 14:00:00 30,0 23,0 34 18 E 1012,8 10
03.07.2020 13:00:00 31,0 24,0 29 16 ESE - 10
03.07.2020 12:00:00 30,0 24,0 28 15 E - 10
03.07.2020 11:00:00 27,9 22,5 26 14 E 1014,3 10
03.07.2020 10:00:00 29,0 24,0 24 13 E - 10
03.07.2020 09:00:00 28,0 24,0 48 26 E - 10
03.07.2020 08:00:00 27,0 23,9 29 16 E 1014,2 24
03.07.2020 07:00:00 27,0 23,0 22 12 E - 10
03.07.2020 06:00:00 26,0 23,0 35 19 ESE - 10
03.07.2020 05:00:00 26,7 22,2 29 16 E 1012,9 20
03.07.2020 04:00:00 27,0 23,0 31 17 E - 10
03.07.2020 03:00:00 28,0 23,0 29 16 E - 10
03.07.2020 02:00:00 26,7 21,5 34 18 E 1013,1 10
03.07.2020 01:00:00 28,0 22,0 34 18 E - 10
03.07.2020 00:00:00 28,0 22,0 34 18 E - 10
02.07.2020 23:00:00 27,0 21,9 31 17 E 1014,5 10
02.07.2020 22:00:00 28,0 23,0 39 21 E - 10
02.07.2020 21:00:00 28,0 23,0 39 21 E - 10
02.07.2020 20:00:00 27,5 23,0 35 19 E 1013,7 10
02.07.2020 19:00:00 28,0 23,0 35 19 E - 10
02.07.2020 18:00:00 28,0 24,0 31 17 E - 10
02.07.2020 17:00:00 28,4 22,7 25 14 E 1011,9 18
02.07.2020 16:00:00 30,0 23,0 35 19 E - 10
02.07.2020 15:00:00 30,0 23,0 39 21 E - 10
02.07.2020 14:00:00 30,0 23,0 37 20 E - 10
02.07.2020 13:00:00 30,2 23,2 42 23 E 1012,8 10
02.07.2020 12:00:00 31,0 24,0 39 21 E - 10
02.07.2020 11:00:00 29,7 22,9 41 22 E 1014,3 10
02.07.2020 10:00:00 31,0 23,0 42 23 E - 10
02.07.2020 09:00:00 30,0 23,0 35 19 E - 10
02.07.2020 08:00:00 28,5 23,2 34 18 E 1014,0 10
02.07.2020 07:00:00 28,0 23,0 35 19 E - 10
02.07.2020 06:00:00 28,0 23,0 39 21 E - 10
02.07.2020 05:00:00 26,9 21,2 41 22 E 1012,8 10
02.07.2020 04:00:00 28,0 22,0 41 22 E - 10
02.07.2020 03:00:00 28,0 23,0 37 20 E - 10
02.07.2020 02:00:00 28,0 23,0 39 21 E - 10
02.07.2020 01:00:00 27,0 22,5 35 19 E 1012,4 10
02.07.2020 00:00:00 28,0 23,0 39 21 E - 10
01.07.2020 23:00:00 27,4 23,0 37 20 E 1014,1 10
01.07.2020 22:00:00 28,0 24,0 37 20 E - 10
01.07.2020 21:00:00 28,0 25,0 31 17 E - 10
01.07.2020 20:00:00 27,9 24,2 29 16 E 1013,5 10
01.07.2020 19:00:00 28,0 24,0 29 16 E - 10
01.07.2020 18:00:00 28,0 24,0 22 12 E - 10
01.07.2020 17:00:00 28,5 23,5 29 16 E 1012,6 10
01.07.2020 16:00:00 30,0 24,0 28 15 E - 10

tt = temperature
td = dewpoint
ff = wind speed
dd = wind direction
ppp = reduced air pressure
vv = visibility

Next stations